Flag for U.S.A. Weather past 2 weeks in Riverside, California, U.S.A.

Now
97 °F

Sunny.


Feels Like: 92 °F
Forecast: 67 / 102 °F
Wind: 5 mph from North

Location: Riverside Municipal Airport

Current Time: Jul 24, 2014 at 12:19:49 PM

Latest Report: Jul 24, 2014 at 11:53 AM


Visibility: 10 mi

Pressure: 29.78 "Hg

Humidity: 14%

Dew point: 40 °F

Location of RiversideLocation

Historic Weather in Riverside — Graph

°F

Riverside temperature yesterday

Maximum temperature yesterday: 99 °F (at 2:53 PM)
Minimum temperature yesterday: 64 °F (at 5:53 AM)
Average temperature yesterday: 81 °F

Past Weeks' High & Low Weather Summary

 TemperatureHumidityPressure
High99 °F (Jul 23, 2:53 PM)90% (Jul 10, 5:53 AM)30.02 "Hg (Jul 10, 5:53 AM)
Low61 °F (Jul 18, 5:53 AM)17% (Jul 23, 1:53 PM)29.79 "Hg (Jul 13, 5:53 PM)
Average75 °F59%29.92 "Hg
* Reported Jul 9 10:53 AM — Jul 24 10:53 AM, Riverside, Weather by CustomWeather, © 2014

Note: Actual official high and low records may vary slightly from our data, if they occured in-between our weather recording intervals... More about our weather records

Advertising

Riverside weather history for previous 24 hours

 ConditionsComfort  
Time TempWeatherWind HumidityBarometerVisibility
10:53 AM
Jul 24
91 °FSunny.5 mph21%29.79 "Hg10 mi
9:53 AM85 °FSunny.No wind29%29.82 "Hg10 mi
8:53 AM80 °FSunny.3 mph35%29.84 "Hg10 mi
7:53 AM74 °FSunny.No wind45%29.84 "Hg10 mi
6:53 AM69 °FClear.No wind59%29.83 "Hg10 mi
5:53 AM67 °FClear.No wind63%29.83 "Hg10 mi
4:53 AM68 °FClear.No wind59%29.81 "Hg10 mi
3:53 AM69 °FClear.No wind59%29.82 "Hg10 mi
2:53 AM70 °FClear.No wind55%29.83 "Hg10 mi
1:53 AM72 °FClear.No wind48%29.84 "Hg10 mi
12:53 AM74 °FClear.No wind50%29.86 "Hg10 mi
11:53 PM
Jul 23
76 °FClear.No wind47%29.87 "Hg10 mi
10:53 PM79 °FClear.No wind39%29.86 "Hg10 mi
9:53 PM80 °FClear.5 mph35%29.86 "Hg10 mi
8:53 PM82 °FSunny.5 mph27%29.85 "Hg10 mi
7:53 PM86 °FSunny.6 mph24%29.85 "Hg10 mi
6:53 PM90 °FSunny.10 mph23%29.84 "Hg10 mi
5:53 PM93 °FSunny.13 mph20%29.83 "Hg10 mi
4:53 PM95 °FSunny.12 mph22%29.85 "Hg10 mi
3:53 PM97 °FSunny.10 mph20%29.85 "Hg10 mi
2:53 PM99 °FSunny.9 mph20%29.87 "Hg10 mi
1:53 PM98 °FSunny.9 mph17%29.89 "Hg10 mi
12:53 PM93 °FSunny.7 mph23%29.91 "Hg10 mi
Weather by CustomWeather, © 2014

See weather overviewHow to use our weather pages